Regional Weather Roundup
Issued by NWS

Home | Current Version | Previous Version | Text Only | Print | Product List | Glossary On
Versions: 1 2 3 4 5 6 7 8 9 10 11 12 13 14 15 16 17 18 19 20 21 22 23 24 25 26 27 28 29 30 31 32 33 34 35 36 37 38 39 40 41 42 43 44 45 46 47 48 49 50
000
ASUS46 KLOX 172012
RWRCA

SOUTHERN CALIFORNIA WEATHER ROUNDUP
NATIONAL WEATHER SERVICE OXNARD CALIFORNIA
100 PM PDT THU APR 17 2014

NOTE: "FAIR" INDICATES FEW OR NO CLOUDS BELOW 12,000 FEET WITH NO
SIGNIFICANT WEATHER AND/OR OBSTRUCTIONS TO VISIBILITY.

  -  STATIONS PRECEEDED BY AN ASTERISK (*) ARE NOT NWS OR FAA
     STATIONS AND ARE NOT SUBJECT TO NWS AND FAA QUALITY CONTROL.

CAZ041-042-087-172100-
LA AND ORANGE COUNTY COASTAL AREAS


CITY           SKY/WX    TMP DP  RH WIND       PRES   REMARKS
L.A. DOWNTOWN  PTSUNNY   69  52  54 CALM      29.88F
L.A. AIRPORT   CLOUDY    68  52  56 W7        29.89F
LONG BEACH     CLOUDY    65  51  60 VRB7      29.90F

CITY           SKY/WX    TMP DP  RH WIND       PRES   REMARKS
AVALON           N/A     63 N/A N/A S3          N/A
FULLERTON      PTSUNNY   70  53  54 VRB3      29.88F
*GETTY CENTER    N/A     64  52  63 S6          N/A
HAWTHORNE      PTSUNNY   68  49  50 S7        29.89F
*LOS ALAMITOS  PTSUNNY   67  55  65 SW12      29.89F
*REDONDO BEACH   N/A     70  55  59 S2        29.88F
SANTA ANA      PTSUNNY   67  53  61 S12       29.89F
STA MONICA APT PTSUNNY   67  52  58 W6        29.90F
TORRANCE       PTSUNNY   68  55  64 SE10      29.91
*UCLA            N/A     64  50  59 NW1       29.86F

$$

CAZ547-548-048-172100-
LA COUNTY VALLEYS AND INLAND EMPIRE


CITY           SKY/WX    TMP DP  RH WIND       PRES   REMARKS
BURBANK        PTSUNNY   69  52  54 S8        29.88F
VAN NUYS       PTSUNNY   69  52  54 S5        29.88F

CITY           SKY/WX    TMP DP  RH WIND       PRES   REMARKS
CORONA AIRPORT MOCLDY    72  53  51 CALM      29.88F
*CHATSWORTH      N/A     69  55  59 E3        29.85F
CHINO          PTSUNNY   73  53  49 W7        29.88F
MARCH AFB      PTSUNNY   74  51  43 NW7       29.89F
ONTARIO        CLOUDY    73  50  44 SW7       29.88F
*PASADENA        N/A     70  57  64 E1          N/A
RIVERSIDE      PTSUNNY   72  51  47 MISG      29.88F
SAN BERNARDINO PTSUNNY   75  46  35 W7        29.88F HAZE
*SAN GABRIEL     N/A     69  51  52 S8        29.85F
*WHITEMAN AP   CLOUDY    68  52  56 CALM      29.91F
*WOODLAND HILL   N/A     72  52  49 NE5         N/A

$$

CAZ054-055-172100-
LA AND SAN BERNARDINO COUNTY MOUNTAINS


CITY           SKY/WX    TMP DP  RH WIND       PRES   REMARKS
*BIG BEAR AIRP PTCLDY    66  27  22 SW10      30.08F
*CHILAO          N/A     68  28  22 W14         N/A
MT WILSON NWS    N/A     70  28  21 SE5         N/A
SANDBERG       PTSUNNY   74  35  24 SE13      29.99F
*WARM SPRINGS    N/A     73  44  35 S2          N/A

$$

CAZ028-029-059-060-099-172100-
ANTELOPE VALLEY AND SURROUNDING AREAS


CITY           SKY/WX    TMP DP  RH WIND       PRES   REMARKS
LANCASTER      PTSUNNY   80  41  24 W12       29.87F
PALMDALE       PTSUNNY   82  33  17 NE6       29.88F

CITY           SKY/WX    TMP DP  RH WIND       PRES   REMARKS
29 PALMS       MOSUNNY   87  26  11 SE23G30   29.92F
BARSTOW/DAGGET SUNNY     89  27  10 N8        29.83F
BISHOP         MOSUNNY   81  24  12 SE22G38   29.83F
CHINA LAKE     PTSUNNY   84  32  15 VRB5      29.84F
EDWARDS AFB    CLOUDY    80  29  15 S3        29.86F
MOJAVE         FAIR      79  30  17 SW9G18    29.90F
NEEDLES        SUNNY     92  12   5 SE8G17    29.84F
VICTORVILLE    PTSUNNY   84  28  13 S16G23    29.88F

$$

CAZ039-040-172100-
VENTURA AND SANTA BARBARA COUNTY COAST


CITY           SKY/WX    TMP DP  RH WIND       PRES   REMARKS
CAMARILLO      CLOUDY    66  53  63 SW7       29.88F
NWS OXNARD       N/A     65  53  65 S13       29.89F
OXNARD AIRPORT CLOUDY    65  52  62 S9        29.90F
*POINT MUGU    CLOUDY    67  53  61 S14       29.89F HAZE
SBA APT/GOLETA CLOUDY    63  52  67 SE7       29.90F
*SANTA BARBARA   N/A     63  52  67 CALM      29.98F
*VENTURA         N/A     68  53  58 SW3       29.93F

$$

CAZ044-045-172100-
VENTURA COUNTY VALLEYS


CITY           SKY/WX    TMP DP  RH WIND       PRES   REMARKS
*SIMI VALLEY     N/A     74  54  50 SW2       29.83F
*OJAI            N/A     69  56  61 W5        29.84F
*FILLMORE        N/A     71  58  64 CALM      29.78F

$$

CAZ053-172100-
VENTURA COUNTY MOUNTAINS


CITY           SKY/WX    TMP DP  RH WIND       PRES   REMARKS
*LOCKWOOD VLY    N/A     70  32  24 MISG        N/A
*ROSE VALLEY     N/A     72  52  49 MISG        N/A

$$

CAZ034-035-036-172100-
CENTRAL COAST AND SANTA YNEZ VALLEY


CITY           SKY/WX    TMP DP  RH WIND       PRES   REMARKS
SAN LUIS OBISP CLOUDY    61  52  72 CALM      29.92F
SANTA MARIA    CLOUDY    60  53  77 W5        29.93F

CITY           SKY/WX    TMP DP  RH WIND       PRES   REMARKS
*CAL POLY SLO    N/A     59  55  88 SE5         N/A
*CAMBRIA         N/A     59  53  81 NW2       29.81F
*LOMPOC        CLOUDY    61  54  77 W10       29.93F
*PISMO BEACH     N/A     58  54  87 W5        29.93F
*SANTA YNEZ    FAIR      63  54  72 W7        29.90F

$$

CAZ037-038-051-172100-
SAN LUIS OBISPO COUNTY INTERIOR AND CUYAMA VALLEY


CITY           SKY/WX    TMP DP  RH WIND       PRES   REMARKS
*CUYAMA          N/A     76  37  24 CALM      29.68F
PASO ROBLES    MOSUNNY   71  51  49 SW14      29.87F

$$

CAZ032-033-061-172100-
SOUTHERN DESERTS


CITY           SKY/WX    TMP DP  RH WIND       PRES   REMARKS
BLYTHE         SUNNY     90  28  11 S14G22    29.84F
IMPERIAL       PTSUNNY   85  54  34 SE12      29.82F
PALM SPRINGS   MOSUNNY   83  38  20 E6        29.87F
THERMAL        MOSUNNY   86  48  26 SE14      29.83F

$$

ELSEWHERE ACROSS THE WESTERN UNITED STATES AND MEXICO


CITY           SKY/WX    TMP DP  RH WIND       PRES   REMARKS
DENVER, CO     PTSUNNY   61  19  19 N7        30.04F
GRAND CANYON,  SUNNY     68  17  14 NW10      30.12F
HONOLULU, HI   MOSUNNY   81  63  54 NE17G26   30.12S
KAHULUI, MAUI  LGT RAIN  77  70  78 NE18G26   30.12F
LAKE TAHOE, CA SUNNY     66  28  24 S17G26    29.98R
LAS VEGAS, NV  MOSUNNY   84  23  10 CALM      29.84F
MAMMOTH LAKES, FAIR      66  21  18 S6        30.01F
MEXICO CITY, M PTSUNNY   77  39  25 SE16      30.20F
PHOENIX, AZ    MOSUNNY   89  18   7 SW3       29.88F
PORTLAND, OR   LGT RAIN  54  52  93 S12       29.88S
RENO, NV       PTSUNNY   76  33  21 VRB6      29.86F
SALT LAKE CITY MOSUNNY   67  25  20 S18G25    29.99F
SAN DIEGO, CA  CLOUDY    64  52  64 S10       29.94S
SAN FRANCISCO, MOSUNNY   63  50  62 W21       29.88F
SAN JOSE, CA   PTSUNNY   70  51  51 NW5       29.86F
SEATTLE, WA    LGT RAIN  52  50  93 SW10      29.83S
TIJUANA, MEX   PTSUNNY   66  50  55 SW3       29.93F

$$

STATION/POSITION TIME  TEMP    WIND        PRES    VSBY  WAVE
                       AIR SEA DIR/SP/G                  HT/PER
                 (UTC) (F)     (DEG/KT/KT) (MB)    (MI)  (FT/S)
POINT ARGUELLO B NOT AVBL
WEST SANTA BARBA 2000   55 55  320/  6/  8 1012.9F         7/11
POINT CONCEPTION NOT AVBL
EAST SANTA BARBA NOT AVBL
SANTA MONICA BAY 2000   59 60  140/  4/  6 1012.2F         3/10



USA.gov is the U.S. government's official web portal to all federal, state and local government web resources and services.